TimeMDT,TemperatureF,Dew PointF,Humidity,Sea Level PressureIn,VisibilityMPH,Wind Direction,Wind SpeedMPH,Gust SpeedMPH,PrecipitationIn,Events,Conditions,WindDirDegrees,DateUTC
12:15 AM,60.8,23.0,23,30.16,10.0,NE,4.6,-,N/A,,Mostly Cloudy,50,2013-06-25 06:15:00
12:35 AM,59.0,26.6,29,30.16,10.0,Calm,Calm,-,N/A,,Mostly Cloudy,0,2013-06-25 06:35:00
12:55 AM,59.0,26.6,29,30.16,10.0,Calm,Calm,-,N/A,,Mostly Cloudy,0,2013-06-25 06:55:00
1:15 AM,57.2,28.4,33,30.16,10.0,Calm,Calm,-,N/A,,Mostly Cloudy,0,2013-06-25 07:15:00
1:35 AM,55.4,28.4,36,30.16,10.0,NE,5.8,-,N/A,,Scattered Clouds,40,2013-06-25 07:35:00
1:55 AM,57.2,24.8,29,30.16,10.0,North,3.5,-,N/A,,Partly Cloudy,10,2013-06-25 07:55:00
2:15 AM,55.4,28.4,36,30.16,10.0,Calm,Calm,-,N/A,,Clear,0,2013-06-25 08:15:00
2:35 AM,53.6,28.4,38,30.17,10.0,Calm,Calm,-,N/A,,Clear,0,2013-06-25 08:35:00
2:55 AM,51.8,26.6,38,30.17,10.0,ENE,5.8,-,N/A,,Partly Cloudy,60,2013-06-25 08:55:00
3:15 AM,51.8,28.4,41,30.17,10.0,Calm,Calm,-,N/A,,Clear,0,2013-06-25 09:15:00
3:35 AM,51.8,26.6,38,30.17,10.0,Calm,Calm,-,N/A,,Clear,0,2013-06-25 09:35:00
4:15 AM,48.2,24.8,40,30.18,10.0,ESE,4.6,-,N/A,,Clear,120,2013-06-25 10:15:00
4:35 AM,48.2,23.0,37,30.18,10.0,NE,8.1,-,N/A,,Clear,50,2013-06-25 10:35:00
4:55 AM,46.4,24.8,43,30.19,10.0,NE,8.1,-,N/A,,Clear,50,2013-06-25 10:55:00
5:15 AM,44.6,24.8,46,30.20,10.0,ENE,10.4,-,N/A,,Clear,60,2013-06-25 11:15:00
5:35 AM,46.4,23.0,40,30.21,10.0,ENE,8.1,-,N/A,,Clear,60,2013-06-25 11:35:00
6:15 AM,44.6,21.2,39,30.22,10.0,NE,6.9,-,N/A,,Clear,50,2013-06-25 12:15:00
6:35 AM,44.6,23.0,43,30.23,10.0,NE,4.6,-,N/A,,Clear,40,2013-06-25 12:35:00
6:55 AM,46.4,24.8,43,30.23,10.0,NE,6.9,-,N/A,,Clear,40,2013-06-25 12:55:00
7:15 AM,48.2,21.2,34,30.24,10.0,NNE,5.8,-,N/A,,Clear,30,2013-06-25 13:15:00
7:35 AM,50.0,24.8,37,30.24,10.0,NNE,5.8,-,N/A,,Clear,30,2013-06-25 13:35:00
7:55 AM,51.8,30.2,44,30.25,10.0,ENE,4.6,-,N/A,,Clear,70,2013-06-25 13:55:00
8:15 AM,53.6,28.4,38,30.25,10.0,East,3.5,-,N/A,,Clear,90,2013-06-25 14:15:00
8:35 AM,59.0,26.6,29,30.26,10.0,Calm,Calm,-,N/A,,Clear,0,2013-06-25 14:35:00
8:55 AM,62.6,26.6,26,30.26,10.0,SW,4.6,-,N/A,,Clear,220,2013-06-25 14:55:00
9:15 AM,64.4,26.6,24,30.25,10.0,SSW,9.2,-,N/A,,Clear,210,2013-06-25 15:15:00
9:35 AM,66.2,24.8,21,30.25,10.0,WSW,13.8,21.9,N/A,,Clear,250,2013-06-25 15:35:00
9:55 AM,66.2,23.0,19,30.25,10.0,West,9.2,19.6,N/A,,Clear,270,2013-06-25 15:55:00
10:15 AM,68.0,23.0,18,30.25,10.0,West,18.4,23.0,N/A,,Clear,260,2013-06-25 16:15:00
10:35 AM,68.0,21.2,17,30.25,10.0,West,6.9,19.6,N/A,,Clear,260,2013-06-25 16:35:00
10:55 AM,69.8,24.8,18,30.25,10.0,West,11.5,17.3,N/A,,Clear,270,2013-06-25 16:55:00
11:15 AM,69.8,23.0,17,30.26,10.0,West,12.7,18.4,N/A,,Clear,270,2013-06-25 17:15:00
11:35 AM,69.8,24.8,18,30.26,10.0,West,12.7,18.4,N/A,,Clear,260,2013-06-25 17:35:00
11:55 AM,69.8,24.8,18,30.26,10.0,WSW,15.0,20.7,N/A,,Clear,240,2013-06-25 17:55:00
12:15 PM,71.6,26.6,19,30.26,10.0,SSW,11.5,17.3,N/A,,Clear,200,2013-06-25 18:15:00
12:35 PM,71.6,26.6,19,30.25,10.0,South,11.5,20.7,N/A,,Clear,190,2013-06-25 18:35:00
12:55 PM,71.6,24.8,17,30.25,10.0,SW,11.5,18.4,N/A,,Clear,220,2013-06-25 18:55:00
1:15 PM,73.4,26.6,18,30.25,10.0,WSW,17.3,23.0,N/A,,Clear,240,2013-06-25 19:15:00
1:35 PM,75.2,28.4,18,30.25,10.0,WSW,16.1,21.9,N/A,,Clear,240,2013-06-25 19:35:00
1:55 PM,73.4,28.4,19,30.25,10.0,West,15.0,20.7,N/A,,Clear,270,2013-06-25 19:55:00
2:15 PM,75.2,26.6,17,30.25,10.0,WSW,10.4,23.0,N/A,,Clear,240,2013-06-25 20:15:00
2:35 PM,75.2,28.4,18,30.25,10.0,West,18.4,29.9,N/A,,Clear,270,2013-06-25 20:35:00
2:55 PM,75.2,26.6,17,30.25,10.0,WSW,10.4,21.9,N/A,,Clear,240,2013-06-25 20:55:00
3:15 PM,75.2,28.4,18,30.24,10.0,WSW,15.0,21.9,N/A,,Clear,240,2013-06-25 21:15:00
3:35 PM,77.0,30.2,18,30.25,10.0,WSW,15.0,20.7,N/A,,Clear,240,2013-06-25 21:35:00
3:55 PM,77.0,28.4,17,30.24,10.0,WSW,15.0,26.5,N/A,,Clear,240,2013-06-25 21:55:00
4:15 PM,77.0,28.4,17,30.24,10.0,WSW,9.2,18.4,N/A,,Clear,250,2013-06-25 22:15:00
4:35 PM,77.0,28.4,17,30.23,10.0,SW,12.7,20.7,N/A,,Clear,230,2013-06-25 22:35:00
4:55 PM,78.8,28.4,16,30.23,10.0,West,13.8,24.2,N/A,,Clear,260,2013-06-25 22:55:00
5:15 PM,78.8,26.6,15,30.23,10.0,SW,11.5,18.4,N/A,,Clear,230,2013-06-25 23:15:00
5:35 PM,78.8,26.6,15,30.23,10.0,West,11.5,24.2,N/A,,Clear,260,2013-06-25 23:35:00
6:15 PM,77.0,26.6,16,30.23,10.0,SW,12.7,18.4,N/A,,Clear,230,2013-06-26 00:15:00
6:35 PM,77.0,26.6,16,30.23,10.0,West,11.5,20.7,N/A,,Clear,280,2013-06-26 00:35:00
6:55 PM,77.0,28.4,17,30.24,10.0,West,11.5,18.4,N/A,,Clear,270,2013-06-26 00:55:00
7:15 PM,75.2,26.6,17,30.24,10.0,West,9.2,-,N/A,,Clear,270,2013-06-26 01:15:00
7:35 PM,75.2,26.6,17,30.25,10.0,WSW,11.5,-,N/A,,Clear,250,2013-06-26 01:35:00
7:55 PM,75.2,26.6,17,30.25,10.0,West,9.2,-,N/A,,Clear,280,2013-06-26 01:55:00
8:15 PM,71.6,28.4,20,30.26,10.0,WNW,8.1,-,N/A,,Clear,300,2013-06-26 02:15:00
8:35 PM,71.6,26.6,19,30.27,10.0,NW,6.9,-,N/A,,Clear,310,2013-06-26 02:35:00
8:55 PM,69.8,26.6,20,30.27,10.0,NNW,6.9,-,N/A,,Clear,340,2013-06-26 02:55:00
9:15 PM,66.2,28.4,24,30.28,10.0,NNW,5.8,-,N/A,,Clear,340,2013-06-26 03:15:00
9:35 PM,64.4,30.2,28,30.29,10.0,Calm,Calm,-,N/A,,Clear,0,2013-06-26 03:35:00
9:55 PM,62.6,33.8,34,30.30,10.0,NNW,3.5,-,N/A,,Clear,340,2013-06-26 03:55:00
10:15 PM,60.8,33.8,36,30.31,10.0,North,9.2,-,N/A,,Clear,360,2013-06-26 04:15:00
10:35 PM,60.8,32.0,34,30.32,10.0,SE,5.8,-,N/A,,Clear,140,2013-06-26 04:35:00
10:55 PM,59.0,32.0,36,30.32,10.0,Calm,Calm,-,N/A,,Clear,0,2013-06-26 04:55:00
11:15 PM,57.2,33.8,41,30.33,10.0,NE,3.5,-,N/A,,Clear,50,2013-06-26 05:15:00
11:35 PM,55.4,33.8,44,30.33,10.0,Calm,Calm,-,N/A,,Clear,0,2013-06-26 05:35:00
11:55 PM,55.4,30.2,38,30.34,10.0,North,3.5,-,N/A,,Clear,360,2013-06-26 05:55:00